This is the latest recevied weather packets stored in our database for station/object K6GMW. If no packets are shown the sender has not sent any weather packets the latest 10 day(s).
| Time | Temp. | Humidity | Pressure | Rain* | Wind** | Luminosity | Snow |
|---|---|---|---|---|---|---|---|
| 1787920183 | 21.67° C | 95% | 1018.9 hPa | 0 mm | - | 42 W/m² | - |
| 1787919878 | 21.11° C | 95% | 1018.9 hPa | 0 mm | - | 36 W/m² | - |
| 1787919577 | 21.11° C | 95% | 1019 hPa | 0 mm | - | 30 W/m² | - |
| 1787919273 | 21.67° C | 95% | 1018.8 hPa | 0 mm | - | 24 W/m² | - |
| 1787918968 | 21.67° C | 95% | 1018.8 hPa | 0 mm | - | 18 W/m² | - |
| 1787918663 | 21.67° C | 95% | 1018.6 hPa | 0 mm | - | 13 W/m² | - |
| 1787918361 | 21.67° C | 95% | 1018.8 hPa | 0 mm | - | 9 W/m² | - |
| 1787918056 | 21.67° C | 95% | 1018.4 hPa | 0 mm | - | 5 W/m² | - |
| 1787917751 | 21.67° C | 95% | 1018.3 hPa | 0 mm | - | 3 W/m² | - |
| 1787917447 | 21.67° C | 95% | 1018.3 hPa | 0 mm | - | 1 W/m² | - |
| 1787917142 | 21.67° C | 95% | 1018.4 hPa | 0 mm | - | 0 W/m² | - |
| 1787916837 | 21.67° C | 95% | 1018.3 hPa | 0 mm | - | 0 W/m² | - |
| 1787916536 | 21.67° C | 95% | 1018.2 hPa | 0 mm | - | 0 W/m² | - |
| 1787916232 | 21.67° C | 95% | 1018.2 hPa | 0 mm | - | 0 W/m² | - |
| 1787915927 | 21.67° C | 95% | 1018.2 hPa | 0 mm | - | 0 W/m² | - |
| 1787915622 | 21.67° C | 95% | 1018.2 hPa | 0 mm | - | 0 W/m² | - |
| 1787915322 | 21.67° C | 95% | 1018.2 hPa | 0 mm | - | 0 W/m² | - |
| 1787915017 | 21.67° C | 95% | 1018.3 hPa | 0 mm | - | 0 W/m² | - |
| 1787914715 | 21.67° C | 94% | 1018.1 hPa | 0 mm | - | 0 W/m² | - |
| 1787914410 | 21.67° C | 94% | 1017.9 hPa | 0 mm | - | 0 W/m² | - |
| 1787914105 | 21.67° C | 94% | 1018 hPa | 0 mm | - | 0 W/m² | - |
| 1787913804 | 21.67° C | 94% | 1017.9 hPa | 0 mm | - | 0 W/m² | - |
| 1787913500 | 21.67° C | 94% | 1018 hPa | 0 mm | - | 0 W/m² | - |
| 1787913199 | 21.67° C | 94% | 1017.9 hPa | 0 mm | - | 0 W/m² | - |
| 1787912898 | 21.67° C | 94% | 1017.8 hPa | 0 mm | - | 0 W/m² | - |
* Rain latest hour (hover to see other rain measurements)
** Current wind speed in m/s (hover to see current wind gust speed)